Terminal Aerodrome Forecast
Issued by NWS Omaha/Valley, NE

Home | Current Version | Previous Version | Graphics & Text | Print | Product List | Glossary On
Versions: 1 2 3 4 5 6 7 8 9 10 11 12 13 14 15 16 17 18 19 20 21 22 23 24 25 26 27 28 29 30 31 32
000
FTUS43 KOAX 292125 AAC
TAFOFK
TAF AMD
KOFK 292125Z 2921/3018 33022KT P6SM SKC
     FM292300 34010KT P6SM SKC
     FM300200 VRB04KT P6SM SKC
     FM301600 20010KT P6SM SCT250=

USA.gov is the U.S. government's official web portal to all federal, state and local government web resources and services.